weather.gov     
National Weather Service

Terminal Aerodrome Forecast
NWS Homepage
This page is being discontinued on March 12, 2014.
The same data is available at this site. Please update your bookmarks.
Thank you, and we apologize for the inconvenience.
Please send an email to SR-SRH.Webmaster@noaa.gov with any concerns.


Current Version
Previous Version:    01  02  03  04  05  06  07  08  09  10  11  12  13  14  15  16  17  18  19  20  21  22  23  24  25  26  27  28  29  
[Printable]
364
FTUS42 TJSJ 192300 RRA
TAFJBQ
TAF
TJBQ 192342Z 2000/2024 10008KT P6SM SCT025 BKN070
     FM201400 08013KT P6SM SCT025
     FM201700 08015KT P6SM VCTS SCT025CB BKN040
     FM202200 10010KT P6SM SCT025
      AMD NOT SKED 2002/2011=


U.S. Dept. of Commerce
NOAA National Weather Service
1325 East West Highway
Silver Spring, MD 20910
E-mail: w-nws.webmaster@noaa.gov
Page last modified: May 16, 2007
NATIONAL WEATHER SERVICE: for Safety, for Work, for Fun - FOR LIFE